Regional Weather Roundup
Issued by NWS Upton, NY

Current Version | Previous Version | Graphics & Text | Print | Product List | Glossary Off
Versions: 1 2 3 4 5 6 7 8 9 10 11 12 13 14 15 16 17 18 19 20 21 22 23 24 25 26 27 28 29 30 31 32 33 34 35 36 37 38 39 40 41 42 43 44 45 46 47 48 49 50

737
ASUS41 KOKX 071704
RWROKX

REGIONAL WEATHER ROUNDUP
NATIONAL WEATHER SERVICE NEW YORK NY
1200 PM EST SUN FEB 07 2016

NOTE: "FAIR" INDICATES FEW OR NO CLOUDS BELOW 12,000 FEET WITH NO
SIGNIFICANT WEATHER AND/OR OBSTRUCTIONS TO VISIBILITY.

NYZ071-072-176-178-NJZ106-104-071800-
NEW YORK CITY METRO AREA


CITY           SKY/WX    TMP DP  RH WIND       PRES   REMARKS
CENTRAL PARK   SUNNY     42  20  41 CALM      30.15F
LAGUARDIA APRT PTSUNNY   45  22  40 CALM      30.14F
KENNEDY INTL   PTSUNNY   44  23  43 CALM      30.16S
NEWARK/LIBERTY PTSUNNY   45  22  40 CALM      30.14F
BRNX BOT. GARD   N/A     45  21  39 SE1       30.14R
TETERBORO      SUNNY     44  21  40 CALM      30.13F
$$

NYZ177-179-078>081-071800-
LONG ISLAND NEW YORK

CITY           SKY/WX    TMP DP  RH WIND       PRES   REMARKS
FARMINGDALE    CLOUDY    44  21  40 NE5       30.15S
ISLIP          CLOUDY    43  23  45 CALM      30.14R
SHIRLEY        CLOUDY    43  27  53 CALM      30.16R
RIVERHEAD        N/A     34  27  75 W1        30.21S
WESTHAMPTON    MOSUNNY   42  25  50 NE5       30.17R
EAST HAMPTON   SUNNY     43  28  56 CALM      30.14S
MONTAUK POINT    N/A     40  31  70 SW3       30.17R
$$

NYZ052-065-067-071800-
HUDSON VALLEY

CITY           SKY/WX    TMP DP  RH WIND       PRES   REMARKS
WHITE PLAINS   SUNNY     43  21  41 W5        30.11F
NEWBURGH       SUNNY     45  23  42 W5        30.12F
MONTGOMERY     SUNNY     45  21  38 CALM      30.11F
POUGHKEEPSIE   SUNNY     44  20  38 CALM      30.12F
ALBANY         MOSUNNY   42  20  41 VRB6      30.15S
$$

NJZ001-105-106-008-010-013-015-019>022-104-071800-
NEW JERSEY

CITY           SKY/WX    TMP DP  RH WIND       PRES   REMARKS
NEWARK/LIBERTY PTSUNNY   45  22  40 CALM      30.14F
TETERBORO      SUNNY     44  21  40 CALM      30.13F
CALDWELL       SUNNY     44  21  40 NE3       30.14F
MORRISTOWN     MOSUNNY   45  21  39 NE6       30.13F
SOMERVILLE     SUNNY     44  24  45 CALM      30.12F
SUSSEX         SUNNY     44  22  41 CALM      30.11F
ANDOVER          N/A     43  19  38 N3        30.11F
TRENTON        CLOUDY    43  23  45 N3        30.13F
MILLVILLE      CLOUDY    43  24  47 VRB5      30.14F
ATLANTIC CITY  PTSUNNY   42  25  50 NE6       30.14F
WRIGHTSTOWN    CLOUDY    39  30  70 CALM      30.12S
TOMS RIVER     PTSUNNY   41  25  52 NE5       30.15F
BELMAR         PTSUNNY   41  21  45 CALM      30.15R
$$

PAZ047>061-062-071-071800-
EASTERN PENNSYLVANIA

CITY           SKY/WX    TMP DP  RH WIND       PRES   REMARKS
PHILADELPHIA   PTSUNNY   44  25  47 E7        30.14F
ALLENTOWN      SUNNY     43  22  43 N3        30.13F
SCRANTON       SUNNY     42  20  41 CALM      30.09F
$$

CTZ002-004>006-009-010-012-RIZ004-006-007-MAZ004-011-015-071800-
SOUTHERN NEW ENGLAND
 IN CT

CITY           SKY/WX    TMP DP  RH WIND       PRES   REMARKS
BRADLEY INTL   MOSUNNY   39  22  50 CALM      30.11F
HARTFORD       SUNNY     40  23  50 CALM      30.14F
DANBURY        SUNNY     44  18  35 CALM      30.12F
WTRBRY/OXFORD  SUNNY     39  18  41 CALM      30.11F
BRIDGEPORT     SUNNY     40  27  59 SE7       30.13F
MERIDEN        SUNNY     44  22  41 N3        30.12F
NEW HAVEN      MOSUNNY   41  24  51 CALM      30.13F
CHESTER        FAIR      43  23  45 N6        30.12F
GROTON         SUNNY     41  27  57 CALM      30.14F
WILLIMANTIC    SUNNY     40  24  53 CALM      30.13F

 IN RI

CITY           SKY/WX    TMP DP  RH WIND       PRES   REMARKS
PROVIDENCE     MOSUNNY   40  25  55 CALM      30.14F
BLOCK ISLAND   SUNNY     39  30  70 CALM      30.16R
WESTERLY       SUNNY     42  27  55 E3        30.14F

 IN MA

CITY           SKY/WX    TMP DP  RH WIND       PRES   REMARKS
BOSTON         MOSUNNY   39  23  52 W3        30.13F
WORCESTER      SUNNY     40  19  43 VRB6      30.09F
WESTFIELD      SUNNY     39  22  50 N3        30.11F
PROVINCETOWN   SUNNY     39  29  67 W5        30.15F
NANTUCKET      CLOUDY    42  32  67 SW9       30.17R
$$

ANZ330-335-338-340-345-350-353-355-071800-
COASTAL MARINE OBSERVATIONS


STATION/POSITION TIME  SKY/WX   TEMP    WIND        PRES    VSBY  WAVE
                                AIR SEA DIR/SP/G                  HT/PER
                 (UTC)          (F)     (DEG/KT/KT) (MB)    (MI)  (FT/S)
NY HARB ENTRANCE 1550            38 43  310/ 10/ 12 1020.4          2/11
4S FIRE IS       NOT AVBL
20S FIRE ISLAND  1550            40 43  330/  6/  6 1020.9          2/11
GREAT SOUTH BAY  NOT AVBL
23SW MTP         1650            40 45  210/  2/  2 1021.4          2/10
HUDSON CANYON    1550            44 50              1021.4          3/ 9
KINGS POINT      1600            39 39   CALM  /  2 1020.5
EXECUTION ROCKS  NOT AVBL
CENTRAL LI SOUND 1600            37     300/  8/ 10   N/A           1
EASTERN LI SOUND 1600            43 41  280/  6/  8   N/A
ROBBINS REEF     1600            39     330/  5/  7 1020.1
$$


>>>>>>>>>>>>>>>>>>>>>>>>>>>> KEY <<<<<<<<<<<<<<<<<<<<<<<<<<<
>                                                          <
>     SKY/WX - SKY CONDITION/PRESENT WEATHER               <
>     TMP    - TEMPERATURE IN FAHRENHEIT                   <
>     DP     - DEWPOINT IN FAHRENHEIT                      <
>     RH     - RELATIVE HUMIDITY IN PERCENT                <
>     WIND   - DIRECTION AND SPEED IN MPH                  <
>     PRES   - MEAN SEA LEVEL PRESSURE IN INCHES OF HG     <
>     WCI    - WIND CHILL INDEX                            <
>     VSB    - VISIBILITY IN MILES                         <
>     HX     - HEAT INDEX                                  <
>     TC     - TEMPERATURE IN CELSIUS                      <
>     VRB    - VARIABLE WIND DIRECTION                     <
>                                                          <
>>>>>>>>>>>>>>>>>>>>>>>>>>>> KEY <<<<<<<<<<<<<<<<<<<<<<<<<<<






USA.gov is the U.S. government's official web portal to all federal, state and local government web resources and services.